Regional Weather Roundup
Issued by NWS

Home | Current Version | Previous Version | Text Only | Print | Product List | Glossary Off
Versions: 1 2 3 4 5 6 7 8 9 10 11 12 13 14 15 16 17 18 19 20 21 22 23 24 25 26 27 28 29 30 31 32 33 34 35 36 37 38 39 40 41 42 43 44 45 46 47 48 49 50

000
ASUS45 KABQ 261401
RWRNM
WEATHER ROUNDUP FOR NEW MEXICO
NATIONAL WEATHER SERVICE ALBUQUERQUE NM
700 AM MST MON JAN 26 2015

NOTE: "FAIR" MEANS FEW OR NO CLOUDS BELOW 12,000 FEET AGL WITH NO
       SIGNIFICANT WEATHER OR OBSTRUCTIONS TO VISION.

      THIS PRODUCT IS RELEASED AS TWO VERSIONS.  ONE VERSION NEAR
      THE TOP OF THE HOUR CONTAINING PRELIMINARY DATA FROM ALBUQUERQUE
      AND OTHER STATIONS.  A FINAL VERSION WITH ADDITIONAL DATA IS
      ISSUED ABOUT 10 MINUTES AFTER THE HOUR.

NMZ501-503-504-510>518-261500-
NORTHWEST PLATEAU/NORTHCENTRAL MOUNTAINS

CITY           SKY/WX    TMP DP  RH WIND       PRES   REMARKS
FARMINGTON     CLEAR     26  20  77 E9        30.39R WCI  17
SANTA FE       CLEAR     29  22  75 N21       30.36R WCI  16
TAOS           MOCLDY    21  16  79 N3        30.42S

$$
NMZ402-403-502-505>509-261500-
WESTCENTRAL MOUNTAINS/SOUTHWEST MOUNTAINS

CITY           SKY/WX    TMP DP  RH WIND       PRES   REMARKS
GALLUP         CLEAR     26  20  77 E3        30.36R
GRANTS         CLEAR     22  20  91 NW7       30.40R WCI  14
SILVER CITY    MOCLDY    28  21  74 NW9       30.33R WCI  20

$$
NMZ407-409-411-412-261500-
SOUTHERN DESERTS

CITY           SKY/WX    TMP DP  RH WIND       PRES   REMARKS
DEMING         MOCLDY    34  26  72 E9        30.31R WCI  27
HOLLOMAN AFB   CLOUDY    28  26  91 N8        30.32S WCI  20
ALAMOGORDO     MOCLDY    32  23  69 N5        30.34R WCI  27
T OR C         MOCLDY    35  23  61 NW6       30.34R WCI  30

$$
NMZ519>523-261500-
CENTRAL VALLEYS/CENTRAL HIGHLANDS

CITY           SKY/WX    TMP DP  RH WIND       PRES   REMARKS
ALBUQUERQUE    MOCLDY    32  23  69 N8        30.37R WCI  25
DOUBLE EAGLE   CLEAR     28  21  74 NW7       30.37R WCI  21
MORIARTY ARPT  FAIR      23  20  87 NW3       30.37R
CLINES CORNERS PTCLDY    38  18  44 NE8       30.33S WCI  32
BELEN          FAIR      24  22  94 W6        30.38R WCI  16
SOCORRO        NOT AVBL

$$
NMZ524>526-539-540-261500-
SOUTHCENTRAL MOUNTAINS

CITY           SKY/WX    TMP DP  RH WIND       PRES   REMARKS
RUIDOSO        NOT AVBL

$$
NMZ527>531-261500-
NORTHEAST HIGHLANDS/NORTHEAST PLAINS

CITY           SKY/WX    TMP DP  RH WIND       PRES   REMARKS
LAS VEGAS      CLEAR     27  19  72 NE10      30.36R WCI  17
RATON          PTCLDY    24  19  81 NE7       30.33R WCI  16
CLAYTON        PTCLDY    41  25  53 W13       30.26R

$$
NMZ532>537-261500-
EASTCENTRAL PLAINS

CITY           SKY/WX    TMP DP  RH WIND       PRES   REMARKS
TUCUMCARI      PTCLDY    33  29  85 W9        30.27S WCI  25
CANNON AFB     PTCLDY    36  26  67 W6        30.27S WCI  31
CLOVIS AIRPORT PTCLDY    32  27  80 W10       30.27S WCI  24

$$
NMZ028-029-538-261500-
SOUTHEAST PLAINS

CITY           SKY/WX    TMP DP  RH WIND       PRES   REMARKS
ROSWELL        CLEAR     30  26  85 NW3       30.32R
ARTESIA        PTCLDY    30  30 100 N8        30.32S WCI  23
CARLSBAD       MOCLDY    33  27  78 N6        30.30R WCI  28
HOBBS          CLEAR     32  27  80 NW6       30.30R WCI  26


$$



USA.gov is the U.S. government's official web portal to all federal, state and local government web resources and services.